Regional Weather Roundup
Issued by NWS Kansas City/Pleasant Hill, MO

Home | Current Version | Previous Version | Graphics & Text | Print | Product List | Glossary Off
Versions: 1 2 3 4 5 6 7 8 9 10 11 12 13 14 15 16 17 18 19 20 21 22 23 24 25 26 27 28 29 30 31 32 33 34 35 36 37 38 39 40 41 42 43 44 45 46 47 48 49 50

000
ASUS43 KEAX 020604
RWREAX

WEATHER ROUNDUP FOR EASTERN KANSAS AND NORTHWEST MISSOURI
NATIONAL WEATHER SERVICE KANSAS CITY/PLEASANT HILL MO
100 AM CDT THU APR 02 2015

KSZ040-057-103>105-MOZ028-029-037-043-020700-
...KANSAS CITY METROPOLITAN AREA...

CITY           SKY/WX    TMP DP  RH WIND       PRES   REMARKS
K.C. INTL      CLOUDY    64  59  83 S23G32    29.61F
6HR MIN TEMP:  61; 6HR MAX TEMP:  69;

K.C. DOWNTOWN  PTCLDY    65  58  78 S16G23    29.62F
6HR MIN TEMP:  63; 6HR MAX TEMP:  70;

LEES SUMMIT    CLEAR     62  58  86 S15G22    29.66F
6HR MIN TEMP:  61; 6HR MAX TEMP:  67;

OLATHE - IXD   CLEAR     63  58  83 S17G25    29.64F
6HR MIN TEMP:  60; 6HR MAX TEMP:  63;

OLATHE - OJC   CLEAR     63  58  83 S17       29.63F
6HR MIN TEMP:  60; 6HR MAX TEMP:  66;

LAWRENCE       PTCLDY    64  57  78 S18G25    29.60F

$$

MOZ001>008-011>017-020>025-030>033-038>040-044>046-053-054-020700-
...NORTHERN AND CENTRAL MISSOURI...

CITY           SKY/WX    TMP DP  RH WIND       PRES   REMARKS
ST. JOSEPH     CLOUDY    63  58  83 S14       29.60F
6HR MIN TEMP:  61; 6HR MAX TEMP:  72;

MOSBY          MOCLDY    61  57  88 SE5       29.66F
WARRENSBURG    CLEAR     61  55  82 S12       29.68F
WHITEMAN AFB   PTCLDY    60  58  93 S15       29.69F
6HR MIN TEMP:  58; 6HR MAX TEMP:  62;

CLINTON        CLEAR     63  59  88 S10       29.72F
SEDALIA        NOT AVBL
WARSAW         NOT AVBL
MARSHALL       CLEAR     63  61  94 S12       29.71F
CHILLICOTHE      N/A     60  56  86 S10       29.68F
6HR MIN TEMP:  60; 6HR MAX TEMP:  70;

KIRKSVILLE     MOCLDY    59  56  89 S12       29.71F
6HR MIN TEMP:  56; 6HR MAX TEMP:  71;


$$

MOZ041-047>049-056>058-063>065-088>090-097-020700-
...EASTERN AND SOUTHERN MISSOURI...

CITY           SKY/WX    TMP DP  RH WIND       PRES   REMARKS
ST. LOUIS INTL CLOUDY    67  48  50 S13G20    29.81R
6HR MIN TEMP:  67; 6HR MAX TEMP:  73;

SPIRIT OF STL  MOCLDY    66  53  63 S13G22    29.78F
COLUMBIA       CLEAR     59  57  93 S13       29.75S
JEFFERSON CITY CLEAR     63  58  83 S12       29.75F
MEXICO         PTCLDY   N/A N/A N/A SE7       29.76F
HANNIBAL       CLOUDY    59  55  88 SE7       29.75F
ROLLA          CLEAR     61  55  81 S14G23    29.79S
LEBANON        CLEAR     61  54  77 S13G21    29.80F
OSAGE BEACH    CLEAR     63  55  77 S10G16    29.77R
SPRINGFIELD    CLEAR     60  56  86 S20       29.77F
BRANSON        CLEAR     59  55  88 CALM      29.84F
NEVADA         CLEAR     59  55  88 S12       29.72F
JOPLIN         CLEAR     66  60  81 S20       29.74F
WEST PLAINS    MOCLDY    62  55  77 S15       29.86F

$$

IAZ060-094-KSZ022-034>040-054-083-096-NEZ052-066-093-020700-
...KANSAS...SOUTHEAST NEBRASKA AND IOWA...

CITY           SKY/WX    TMP DP  RH WIND       PRES   REMARKS
TOPEKA         PTCLDY    67  58  72 S13G24    29.57F
6HR MIN TEMP:  62; 6HR MAX TEMP:  74;

MANHATTAN      PTCLDY    70  58  65 S18G28    29.54F
EMPORIA        MOCLDY    66  59  78 S24G36    29.59F
CHANUTE        MOCLDY    66  61  84 S18G29    29.66F
WICHITA        MOCLDY    69  59  70 S23       29.60F
OMAHA          LGT RAIN  56  55  97 NW7       29.73R FOG
LINCOLN        LGT RAIN  56  52  86 N16       29.72R
FALLS CITY     CLOUDY    63  52  67 N17G28    29.67R
LAMONI         CLOUDY    61  57  87 S20G25    29.62F
DES MOINES     CLOUDY    61  52  72 NW20      29.68R

$$



USA.gov is the U.S. government's official web portal to all federal, state and local government web resources and services.